Weather History for Dubuque, IA

Change the Weather History Date:

Sunday, May 12, 2013

  Actual Average Record
Temperature  
Mean Temperature 44 °F 58 °F  
Max Temperature 54 °F 68 °F 90 °F (1896)
Min Temperature 34 °F 47 °F 32 °F (1969)
Degree Days  
Heating Degree Days 21 8  
Month to date heating degree days 136 116  
Since 1 July heating degree days 7176 6937  
Cooling Degree Days 0 1  
Month to date cooling degree days 0 4  
Year to date cooling degree days 8 9  
Moisture  
Dew Point 27 °F    
Average Humidity 53    
Maximum Humidity 70    
Minimum Humidity 35    
Precipitation  
Precipitation 0.00 in 0.14 in 1.91 in (1978)
Month to date precipitation 3.31 1.60  
Year to date precipitation 17.84 10.28  
Snow  
Snow 0.00 in 0.00 in - ()
Month to date snowfall 0.0 0.1  
Since 1 July snowfall 54.5 42.0  
Snow Depth 0.00 in    
Sea Level Pressure  
Sea Level Pressure 30.15 in    
Wind  
Wind Speed 11 mph (NW)    
Max Wind Speed 22 mph    
Max Gust Speed 29 mph    
Visibility 10 miles    
Events Snow    
T = Trace of Precipitation, MM = Missing Value Source: NWS Daily Summary

Daily Weather History Graph

Daily Weather History Graph

Search for Another Location

Airport:

Trip Planner

Search our weather history database for the weather conditions in past years. The results will help you decide how hot, cold, wet, or windy it might be!

Date:

Astronomy

May. 12, 2013 Rise Set
Actual Time 5:44 AM CDT 8:14 PM CDT
Civil Twilight 5:12 AM CDT 8:46 PM CDT
Nautical Twilight 4:32 AM CDT 9:26 PM CDT
Astronomical Twilight 3:47 AM CDT 10:11 PM CDT
Moon 7:38 AM CDT (5/12) 10:42 PM CDT (5/12)
Length of Visible Light 15h 34m
Length of Day
14h 30m
Waxing Crescent, 7% of the Moon is Illuminated
May 12
Waxing Crescent
May 17
First Quarter
May 24
Full
May 31
Last Quarter
Jun 8
New

Hourly Weather History & Observations

Time (CDT) Temp. Windchill Dew Point Humidity Pressure Visibility Wind Dir Wind Speed Gust Speed Precip Events Conditions
12:53 AM 39.0 °F 32.8 °F 26.1 °F 60% 30.14 in 9.0 mi NW 9.2 mph - 0.00 in   Unknown
1:53 AM 37.0 °F 31.6 °F 26.1 °F 65% 30.14 in 9.0 mi NW 6.9 mph - 0.00 in Snow Light Snow
2:53 AM 36.0 °F 29.0 °F 27.0 °F 70% 30.14 in 9.0 mi NW 9.2 mph - 0.00 in Snow Light Snow
3:53 AM 35.1 °F 28.6 °F 26.1 °F 70% 30.15 in 9.0 mi NW 8.1 mph - 0.00 in Snow Light Snow
4:53 AM 35.1 °F 27.4 °F 26.1 °F 70% 30.15 in 9.0 mi NW 10.4 mph - 0.00 in Snow Light Snow
5:53 AM 34.0 °F 26.0 °F 26.1 °F 73% 30.16 in 9.0 mi NW 10.4 mph - 0.00 in   Clear
6:53 AM 37.0 °F 28.9 °F 26.1 °F 65% 30.17 in 9.0 mi NNW 12.7 mph - N/A   Clear
7:53 AM 39.9 °F 32.5 °F 28.0 °F 63% 30.18 in 10.0 mi NNW 12.7 mph 21.9 mph N/A   Clear
8:53 AM 42.1 °F 34.5 °F 28.0 °F 58% 30.19 in 10.0 mi NNW 15.0 mph 19.6 mph N/A   Clear
9:53 AM 44.6 °F 38.4 °F 26.6 °F 49% 30.17 in 10.0 mi NNW 12.7 mph 21.9 mph N/A   Clear
10:53 AM 46.0 °F 40.2 °F 28.0 °F 50% 30.20 in 10.0 mi NNW 12.7 mph 20.7 mph N/A   Clear
11:53 AM 48.0 °F - 26.1 °F 42% 30.19 in 10.0 mi NW 18.4 mph 28.8 mph N/A   Clear
12:53 PM 50.0 °F - 26.1 °F 39% 30.18 in 10.0 mi NNW 17.3 mph - N/A   Clear
1:53 PM 51.1 °F - 26.1 °F 38% 30.17 in 10.0 mi NW 15.0 mph 24.2 mph N/A   Clear
2:53 PM 52.0 °F - 27.0 °F 38% 30.15 in 10.0 mi WNW 17.3 mph 24.2 mph N/A   Clear
3:53 PM 53.1 °F - 26.1 °F 35% 30.14 in 10.0 mi NW 17.3 mph 26.5 mph N/A   Clear
4:53 PM 53.1 °F - 26.1 °F 35% 30.13 in 10.0 mi WNW 18.4 mph 24.2 mph N/A   Clear
5:53 PM 53.1 °F - 27.0 °F 37% 30.12 in 10.0 mi NW 12.7 mph - N/A   Clear
6:53 PM 52.0 °F - 27.0 °F 38% 30.12 in 10.0 mi NW 12.7 mph - N/A   Clear
7:53 PM 50.0 °F - 27.0 °F 41% 30.12 in 10.0 mi NW 8.1 mph - N/A   Clear
8:53 PM 46.0 °F 44.8 °F 28.0 °F 50% 30.13 in 10.0 mi NW 3.5 mph - N/A   Clear
9:53 PM 44.1 °F 41.5 °F 28.0 °F 53% 30.14 in 10.0 mi NW 4.6 mph - N/A   Clear
10:53 PM 41.0 °F 39.0 °F 28.9 °F 62% 30.14 in 10.0 mi WNW 3.5 mph - N/A   Clear
11:53 PM 39.0 °F - 30.9 °F 73% 30.15 in 10.0 mi Calm Calm - N/A   Clear